Flag for Slovakia Weather past 2 weeks in Prievidza, Slovakia

Now
47 °F

Cool.


Feels Like: 46 °F
Forecast: 44 / 63 °F
Wind: 3 mph from North

Location: Prievidza


UV Index: 3 (Moderate)

Visibility: 8 mi


Pressure: 29.79 "Hg

Humidity: 89%

Dew point: 44 °F

Location of PrievidzaLocation

Historic Weather in Prievidza

°F

Prievidza temperature yesterday

Maximum temperature yesterday: 69 °F (at 3:00 PM)
Minimum temperature yesterday: 35 °F (at 6:00 AM)
Average temperature yesterday: 54 °F

Past Weeks' High & Low Weather Summary

 TemperatureHumidityPressure
High72 °F (Apr 8, 4:00 PM)97% (Apr 10, 5:00 AM)30.27 "Hg (Apr 10, 5:00 AM)
Low30 °F (Apr 11, 6:00 AM)21% (Apr 12, 4:00 PM)29.71 "Hg (Apr 18, 3:00 PM)
Average50 °F68%30.00 "Hg
* Reported Apr 4 4:00 AM — Apr 19 3:00 AM, Prievidza, Weather by CustomWeather, © 2014

Note: Actual official high and low records may vary slightly from our data, if they occured in-between our weather recording intervals... More about our weather records

Advertising

Historic Weather Conditions — Data for Previous 24 hours

 ConditionsComfort  
Time TempWeatherWind HumidityBarometerVisibility
3:00 AM
Apr 19
47 °FCool.2 mph88%29.79 "Hg9 mi
2:00 AM49 °FCool.2 mph86%29.79 "Hg9 mi
1:00 AM50 °FCool.N/A84%29.79 "Hg11 mi
12:00 AM52 °FCool.N/A79%29.79 "Hg12 mi
11:00 PM
Apr 18
52 °FCool.2 mph78%29.79 "Hg17 mi
10:00 PM54 °FLight rain. Overcast.N/A71%29.78 "Hg19 mi
9:00 PM55 °FPassing clouds.3 mph69%29.78 "Hg31 mi
8:00 PM57 °FOvercast.3 mph69%29.76 "Hg19 mi
7:00 PM62 °FLight rain. Overcast.N/A48%29.73 "Hg19 mi
6:00 PM64 °FOvercast.3 mph47%29.72 "Hg31 mi
5:00 PM65 °FPartly sunny.3 mph43%29.71 "Hg28 mi
4:00 PM65 °FPartly sunny.3 mph47%29.72 "Hg25 mi
3:00 PM69 °FScattered clouds.5 mph36%29.71 "Hg25 mi
2:00 PM67 °FPassing clouds.3 mph35%29.73 "Hg22 mi
1:00 PM66 °FPassing clouds.3 mph40%29.75 "Hg19 mi
12:00 PM65 °FPassing clouds.2 mph43%29.77 "Hg19 mi
11:00 AM62 °FPassing clouds.N/A45%29.79 "Hg19 mi
10:00 AM58 °FPassing clouds.N/A52%29.81 "Hg19 mi
9:00 AM52 °FPassing clouds.N/A61%29.83 "Hg19 mi
8:00 AM47 °FPassing clouds.2 mph74%29.85 "Hg22 mi
7:00 AM39 °FChilly.N/A92%29.89 "Hg12 mi
6:00 AM35 °FChilly.No wind92%29.92 "Hg7 mi
5:00 AM37 °FChilly.No wind90%29.93 "Hg13 mi
4:00 AM38 °FChilly.1 mph89%29.95 "Hg12 mi
Weather by CustomWeather, © 2014

See weather overview